Location: Newark
(58.8333°N, 23.5833°E)
Time: 05:41:25
(UTC+00:00)

METEOR M2 - Pass Details

Date: 14 December 2019
Orbit: 819 x 827 km, 98.5° (Epoch: 28 January)

Event Time Altitude Azimuth Distance (km) Brightness Sun altitude
Exits shadow 18:20:45 29° 327° (NNW) 1,467 ? -35.2°
Drops below altitude 10° 18:23:25 10° 338° (NNW) 2,432 ? -35.5°
Sets 18:25:49 0° 342° (NNW) 3,368 ? -35.8°
